CW6575 Weather Reports


Display with metric or nautical units.
time (UTC)temp
F
wind
direction
speed
MPH
gust
MPH
rain 1hr
in
rain 24hr
in
rain mn
in
humidity
%
barometer
mb
20260904023043 74 151 0.0 3.0 0.00 0.00 0.00 90 1015.0
20260904021539 74 143 3.0 6.0 0.00 0.00 0.00 90 1014.3
20260904020045 74 191 3.0 6.0 0.00 0.00 0.00 91 1014.5
20260904014539 74 133 2.0 4.0 0.00 0.00 0.00 90 1014.6
20260904013038 74 142 1.0 3.0 0.00 0.00 0.00 90 1014.4
20260904011537 75 172 1.0 4.0 0.00 0.00 0.00 89 1013.9
20260904010042 75 176 2.0 5.0 0.00 0.00 0.00 89 1013.8
20260904004538 76 166 2.0 6.0 0.00 0.00 0.00 88 1013.7
20260904003036 76 148 3.0 6.0 0.00 0.00 0.00 89 1013.7
20260904001535 76 148 2.0 3.0 0.00 0.00 0.00 89 1013.9
20260904000035 77 333 0.0 2.0 0.00 0.00 0.00 88 1014.0
20260903234533 78 333 0.0 1.0 0.00 0.00 0.00 85 1014.0
20260903233036 80 333 0.0 1.0 0.00 0.00 0.00 84 1013.9
20260903231537 82 333 0.0 0.0 0.00 0.00 0.00 79 1013.9
20260903230038 84 333 0.0 0.0 0.00 0.00 0.00 76 1013.5
20260903224532 84 333 0.0 0.0 0.00 0.00 0.00 71 1013.4
20260903223034 85 333 1.0 2.0 0.00 0.00 0.00 66 1013.0
20260903221538 86 344 0.0 0.0 0.00 0.00 0.00 66 1012.8
20260903220054 85 344 0.0 3.0 0.00 0.00 0.00 67 1012.7
20260903214529 84 171 0.0 2.0 0.00 0.00 0.00 75 1012.8
20260903213030 83 160 1.0 3.0 0.00 0.00 0.00 75 1012.6
20260903211527 84 360 0.0 2.0 0.00 0.00 0.00 73 1012.9
20260903210026 86 295 0.0 2.0 0.00 0.00 0.00 63 1013.0
20260903204525 87 289 1.0 2.0 0.00 0.00 0.00 61 1013.0
20260903203025 88 198 0.0 3.0 0.00 0.00 0.00 56 1013.4
20260903201524 90 328 1.0 4.0 0.00 0.00 0.00 56 1013.7
20260903200037 90 344 1.0 4.0 0.00 0.00 0.00 58 1013.5
20260903194533 89 332 1.0 6.0 0.00 0.00 0.00 57 1013.9
20260903193015 88 337 1.0 5.0 0.00 0.00 0.00 60 1014.2
20260903191518 88 341 0.0 3.0 0.00 0.00 0.00 61 1014.3
20260903190012 89 317 0.0 4.0 0.00 0.00 0.00 60 1014.4
20260903184511 88 341 1.0 4.0 0.00 0.00 0.00 59 1014.7
20260903183015 88 156 0.0 4.0 0.00 0.00 0.00 59 1014.6
20260903181506 87 279 2.0 7.0 0.00 0.00 0.00 61 1014.9
20260903180005 89 331 1.0 4.0 0.00 0.00 0.00 58 1014.9
20260903174503 87 279 2.0 5.0 0.00 0.00 0.00 60 1015.1
20260903173002 87 287 0.0 5.0 0.00 0.00 0.00 61 1015.2
20260903171500 87 179 1.0 6.0 0.00 0.00 0.00 62 1015.1
20260903170100 88 166 0.0 4.0 0.00 0.00 0.00 60 1015.2
20260903164557 86 310 0.0 4.0 0.00 0.00 0.00 62 1015.5
20260903163053 85 331 0.0 4.0 0.00 0.00 0.00 66 1015.6
20260903161609 85 302 1.0 5.0 0.00 0.00 0.00 66 1015.8
20260903160051 85 311 1.0 4.0 0.00 0.00 0.00 66 1016.1
20260903154550 85 17 1.0 9.0 0.00 0.00 0.00 65 1016.1
20260903153048 85 355 1.0 3.0 0.00 0.00 0.00 67 1016.1
20260903151546 84 306 1.0 5.0 0.00 0.00 0.00 67 1016.1
20260903150043 83 298 0.0 4.0 0.00 0.00 0.00 68 1016.2
20260903144541 83 171 0.0 3.0 0.00 0.00 0.00 71 1016.2
20260903143041 81 163 3.0 5.0 0.00 0.00 0.00 73 1016.2
20260903141532 80 155 0.0 3.0 0.00 0.00 0.00 79 1016.2
20260903140028 77 157 0.0 2.0 0.00 0.00 0.00 84 1016.2
20260903134527 75 157 0.0 2.0 0.00 0.00 0.00 87 1016.3
20260903133020 74 157 0.0 0.0 0.00 0.00 0.00 88 1016.4
20260903131521 73 157 0.0 2.0 0.00 0.00 0.00 90 1016.5
20260903130012 72 157 0.0 0.0 0.00 0.00 0.00 91 1016.6
20260903124507 71 157 1.0 3.0 0.00 0.00 0.00 92 1016.7
20260903123003 70 151 2.0 4.0 0.00 0.00 0.00 93 1016.7
20260903121501 69 158 0.0 2.0 0.00 0.00 0.00 94 1016.9
20260903114600 68 151 0.0 2.0 0.00 0.00 0.00 94 1016.8
20260903113055 67 155 0.0 3.0 0.00 0.00 0.00 94 1016.7
20260903111553 67 155 0.0 1.0 0.00 0.00 0.00 94 1016.6
20260903110052 67 163 0.0 5.0 0.00 0.00 0.00 94 1016.3
20260903104550 67 150 3.0 5.0 0.00 0.00 0.00 94 1016.2
20260903103048 67 159 0.0 0.0 0.00 0.00 0.00 93 1016.1
20260903101547 68 159 0.0 2.0 0.00 0.00 0.00 93 1016.0
20260903100047 68 149 1.0 5.0 0.00 0.00 0.00 93 1015.8
20260903094555 68 149 0.0 3.0 0.00 0.00 0.00 93 1015.9
20260903093050 68 149 1.0 3.0 0.00 0.00 0.00 92 1015.8
20260903091555 69 171 1.0 4.0 0.00 0.00 0.00 92 1015.8
20260903090044 69 170 2.0 5.0 0.00 0.00 0.00 92 1015.7
20260903084543 68 150 2.0 6.0 0.00 0.00 0.00 93 1015.6
20260903083042 68 147 1.0 3.0 0.00 0.00 0.00 93 1015.6
20260903081547 68 147 0.0 3.0 0.00 0.00 0.00 93 1015.7
20260903080041 68 146 2.0 3.0 0.00 0.00 0.00 92 1015.7
20260903074542 68 146 3.0 6.0 0.00 0.00 0.00 92 1015.7
20260903073046 68 155 1.0 5.0 0.00 0.00 0.00 92 1015.7
20260903071540 68 144 3.0 5.0 0.00 0.00 0.00 92 1015.7
20260903070038 68 153 2.0 5.0 0.00 0.00 0.00 92 1015.6
20260903064537 68 150 2.0 5.0 0.00 0.00 0.00 92 1015.7
20260903063037 68 168 3.0 6.0 0.00 0.00 0.00 92 1015.8
20260903061536 68 153 2.0 5.0 0.00 0.00 0.00 92 1015.8
20260903060035 68 145 2.0 4.0 0.00 0.00 0.00 92 1015.9
20260903054535 68 142 2.0 4.0 0.00 0.00 0.00 92 1016.0
20260903053033 68 148 3.0 5.0 0.00 0.00 0.00 92 1015.8
20260903051532 68 148 2.0 5.0 0.00 0.00 0.00 92 1015.7
20260903050031 69 142 2.0 5.0 0.00 0.00 0.00 92 1015.6
20260903044530 69 159 2.0 6.0 0.00 0.00 0.00 92 1015.7
20260903043028 69 171 1.0 5.0 0.00 0.00 0.00 92 1015.7
20260903041527 69 157 2.0 4.0 0.00 0.00 0.00 92 1015.7
20260903040028 69 163 0.0 3.0 0.00 0.00 0.00 92 1015.9
20260903034523 70 163 0.0 3.0 0.00 0.00 0.00 92 1016.0
20260903033023 70 158 0.0 1.0 0.00 0.00 0.00 91 1015.9
20260903031524 70 157 1.0 5.0 0.00 0.00 0.00 91 1015.8
20260903030028 71 144 3.0 6.0 0.00 0.00 0.00 91 1015.8
20260903024521 71 156 2.0 5.0 0.00 0.00 0.00 91 1015.9